Погода Пушкинские Горы

Погода Пушкинские Горы : погода сейчас, прогноз погоды и архив. Всё, что Вы хотите узнать о погоде Пушкинские Горы!

Хотите узнать прогноз погоды Пушкинские Горы? Тогда Вам сюда: Погода Пушкинские Горы

Поиск расширенной информации на нашем сайте:

Другие новости

Новости СМИ2

Главная страница сайта

Новости сайта

03.07.2017

Напоминаем, что на нашем специализированном сайте Метеоцентр.Азия вы можете получить высокодетализированные автоматические прогнозы погоды по пунктам России, СНГ и мира в авиационном формате (включающие направление и скорость ветра, видимость, явления погоды, количество и форму облачности, нижнюю и верхнюю границу облачности).


Погода Пушкинские Горы - сегодня

Время (UTC), дата Ветер
(°,м/с) 
Видим.   Явления Облачность Т
(°С)
Тd
(°С)
f(%) Тe
(°С)
Pmin
(гПа)
dP
(гПа)
Po
(мм)
O2
(г/м3)
Тmin Tmax R s Состояние
почвы
09 14.06.18 180 (Ю) 20000 м    9/8 600 м кучево-дожд., средняя, верхняя 
[Cb calv|Ac trans|Ci fib]
+20.7 +11.5 56 +24  1013.2  0.8  751  279           
12 14.06.18 170 (Ю) 20000 м    9/8 600 м кучево-дожд., верхняя 
[Cb calv|Ci fib]
+22.5 +8.9 42 +23  1013.2  0.1  751  278           
15 14.06.18 090 (В) 20000 м    9/8 600 м кучево-дожд., верхняя 
[Cb calv|Ci fib]
+18.8 +12.4 66 +24  1013.8  0.4  751  281           
21 14.06.18 140 (ЮВ) 20000 м    3/0 верхняя 
[Ci fib]
+13.6 +10.5 82 +16  1015.5  1.2  753  287           
00 15.06.18 140 (ЮВ) 20000 м    1/0 верхняя 
[Ci fib]
+11.2 +8.6 84 +11  1016.3  0.8  753  290           
03 15.06.18 150 (ЮВ) 20000 м    3/0 верхняя 
[Ci fib]
+12.3 +8 75 +13  1016.9  0.6  754  289  +9.4         
09 15.06.18 120 (ЮВ) 20000 м    5/0 верхняя 
[Ci fib]
+20.9 +8.9 46 +21  1017  0.2  754  281           
12 15.06.18 070 (В) 20000 м    4/1 1000 м верхняя 
[Cu hum|Ci fib]
+22.2 +7.8 40 +22  1016.6  -0.4  754  280           
15 15.06.18 080 (В) 20000 м    3/1 1000 м верхняя 
[Cu hum|Ci fib]
+22.8 +7.9 38 +23  1016  -0.5  753  279           
21 15.06.18 090 (В) 20000 м    8/0 средняя 
[Ac trans]
+12.3 +8.6 78 +14  1017.5  0.6  754  289           
00 16.06.18 120 (ЮВ) 20000 м    9/0 средняя, верхняя 
[Ac trans|Ci fib]
+10.3 +8.6 89 +11  1018  0.6  754  291           
03 16.06.18 тихо ()   20000 м    8/0 верхняя 
[Ci fib]
+11.9 +10 88 +13  1018.4  0.5  755  290  +9.2         
09 16.06.18 130 (ЮВ) 20000 м    10/8 1000 м кучево-дожд., средняя 
[Cb cap|Ac As]
+18 +8.5 54 +19  1019.2  0.4  755  284           
21 16.06.18 тихо ()   20000 м    10/10 600 м кучево-дожд. 
[Cb cap]
+12.8 +10.3 85 +14  1017.9  -0.3  754  288           
03 17.06.18 070 (В) 20000 м  {ливн. осадки}  10/10 600 м кучево-дожд. 
[Cb cap]
+13.4 +12.2 92 +18  1016.9  -0.2  754  287  +12    0.6     
06 17.06.18 060 (СВ) 20000 м  {ливн. осадки}  10/0 средняя 
[Ac As]
+15 +13.1 88 +21  1016.7  0.1  754  285  +12    0.6    влажная 
09 17.06.18 130 (ЮВ) 20000 м  слаб. дождь  10/10 600 м 
[Sc]
+16.3 +13.9 86 +24  1017.2  0.5  754  284           
15 17.06.18 200 (Ю) 20000 м    10/10 600 м кучево-дожд. 
[Cb cap]
+17.6 +13.6 77 +25  1016.7  -0.4  754  283      0.0     
21 17.06.18 тихо ()   10 км    3/0 верхняя 
[Ci fib]
+12.4 +12 97 +16  1016.6  0.1  753  288           
00 18.06.18 160 (Ю) 10 км  туман поземный  ясно 
+12 +11.8 99 +17  1016.4  -0.2  753  288           
03 18.06.18 150 (ЮВ) 10 км    8/0 средняя, верхняя 
[Ac lent|Ci fib]
+13.1 +13 99 +19  1015.9  -0.5  753  287  +11         
09 18.06.18 250 (З) 20000 м    3/3 1000 м верхняя 
[Cu hum|Ci fib]
+23.7 +15.4 60 +33  1015.1  -0.2  753  276           
12 18.06.18 230 (ЮЗ) 20000 м    8/4 600 м кучево-дожд., верхняя 
[Cb calv|Ci fib]
+26.7 +12.1 40 +31  1014.5  -0.4  752  274           
15 18.06.18 250 (З) 20000 м    4/3 1000 м верхняя 
[Cu hum|Ci fib]
+27.2 +10.7 36 +29  1013.5  -0.9  752  273           
21 18.06.18 350 (С) 20000 м    10/10 600 м 
[Sc diur, vesp]
+17.7 +12.8 73 +24  1014.5  1.3  752  282           
Время (UTC), дата Ветер
(°,м/с) 
Видим.   Явления Облачность Т
(°С)
Тd
(°С)
f(%) Тe
(°С)
Pmin
(гПа)
dP
(гПа)
Po
(мм)
O2
(г/м3)
Тmin Tmax R s Состояние
почвы

Для получения пояснительной информации подведите курсор к названию столбца.

ПОГОДА Пушкинские Горы - архив

Всё, что Вы хотите узнать о погоде Пушкинские Горы - удобно и подробно!

Выберите нужную дату (начиная с 1 января 2015* года) и нажмите кнопку "Найти".
Будут отображены архивные сводки погоды по пункту Пушкинские Горы, начиная с указанной даты.


Отображать данные в формате CSV (для использования в таблицах Excel)


Внимание! Наш архив погоды предназначен исключительно для личного некоммерческого использования в познавательных целях. Если Вам необходимы официальные справки о состоянии погоды (для производственных, юридических, коммерческих и т.п. целей), обращайтесь в органы Росгидромета.

*Примечание: данная дата относится к архиву по метеостанциям СССР (Россия, СНГ, Балтия).
Архив по метеостанциям Зарубежной Европы и Азии (кроме Китая) хранится 10 дней, по другим регионам земного шара (Китай, Африка, Америка, Австралия, Океания) - 1 день.

Пушкинские Горы - район местоположения метеостанции


Название, широта, долгота, высота метеостанции:
Пушкинские Горы 57°ш. 28.9°д. 108 м над ур. моря [Российская Федерация]

Дополнительная информация

В oтличие oт бoльшинства пoгoдных сайтoв мы публикуем пoдрoбную метеoинфoрмацию в детальнoм прoфессиoнальнoм фoрмате.

Характеристики температуры и влажнoсти вoздуха измеряются на высoте 2 м в тени вдали oт зданий и деревьев.
Скoрoсть ветра измеряется на высoте 10 м (на урoвне рoста челoвека скoрoсть ветра ниже в 1.5-2 раза). Если метеoстанция нахoдится в гoрoде или в лесу, тo скoрoсть ветра занижена на 2-4 м/с пo сравнению с oткрытым местoм. Скoрoсть ветра над акватoриями крупных рек и oзёр, а также на вершинах хoлмoв на 2-5 м/с выше, чем в oбычных услoвиях.
Атмoсфернoе давление в разных тoчках местнoсти мoжет значительнo oтличаться oт давления на метеoстанции, в зависимoсти oт услoвий рельефа (при пoдъёме на 10 м давление пoнижается примернo на 1 мм рт.ст.).